STARLINK-4462 (53781 NORAD) Tracking and Keplerian Element Data

This shows tracking and keplerian element data for the satellite.

Feedback or suggestion? Click here.




ElementValue
Catalog53781
NameSTARLINK-4462
Epoch Orbit1106
Epoch Day325.33334491
Epoch Year2022
RAAN280.6802
Inclination53.2172
Eccentricity0.0001622
Argument of Perigee43.6927
Mean Anonmoly159.4866
Mean Motion15.09755429
Decay Rate-0.00914737
L11 53781U 22111J 22325.33334491 -.00914737 00000+0 -60567-1 0 9992
L22 53781 53.2172 280.6802 0001622 43.6927 159.4866 15.09755429 11068



Live tracking and technical data element details for STARLINK-4462 (NORAD 53781). STARLINK-4462 can be tracked NOW for your location showing map with azimuth and elevation plus other details from your city location.







IsCatalogInMostPopularTable: catalog: 53781, numindb: -1

Insert: records affected: 1


GetName: 53781 STARLINK-4462

Hit Count: inserted at: Thu, 08 Dec 2022 09:44:55 GMT